Wheeler AAF, HI

10:50 PM HST on April 27, 2017 (GMT -1000)
Wheeler Army Air Field

Weather History for PHHI - January, 2014

Change the Weather History Date:

Thursday, January 16, 2014

  Actual Average Record
Temperature  
Mean Temperature 71 °F -  
Max Temperature 78 °F 74 °F 78 °F (2001)
Min Temperature 64 °F 60 °F 55 °F (2003)
Cooling Degree Days 6    
Growing Degree Days 21 (Base 50)    
Moisture  
Dew Point 65 °F    
Average Humidity 84    
Maximum Humidity 94    
Minimum Humidity 52    
Precipitation  
Precipitation 0.02 in - - ()
Sea Level Pressure  
Sea Level Pressure 29.95 in    
Wind  
Wind Speed 5 mph (NW)    
Max Wind Speed 13 mph    
Max Gust Speed -    
Visibility 10 miles    
Events Rain    
Averages and records for this station are not official NWS values.
T = Trace of Precipitation, MM = Missing Value Source: NWS Daily Summary

Daily Weather History Graph

Daily Weather History Graph

Search for Another Location

Airport or City:

Trip Planner

Search our weather history database for the weather conditions in past years. The results will help you decide how hot, cold, wet, or windy it might be!

Date:

Astronomy

Jan. 16, 2014 Rise Set
Actual Time 7:12 AM HST 6:11 PM HST
Civil Twilight 6:48 AM HST 6:35 PM HST
Nautical Twilight 6:21 AM HST 7:02 PM HST
Astronomical Twilight 5:54 AM HST 7:29 PM HST
Moon 7:00 PM HST (1/16) 7:24 AM HST (1/16)
Length of Visible Light 11h 46m
Length of Day
10h 59m
Full, 100% of the Moon is Illuminated
Jan 16
Full
Jan 23
Last Quarter
Jan 30
New
Feb 6
First Quarter
Feb 14
Full

Hourly Weather History & Observations

Time (HST) Temp. Dew Point Humidity Pressure Visibility Wind Dir Wind Speed Gust Speed Precip Events Conditions
12:29 AM 71.6 °F 64.4 °F 78% 29.91 in 10.0 mi Variable 3.5 mph - N/A   Drizzle
12:41 AM 71.6 °F 64.4 °F 78% 29.91 in 10.0 mi Variable 4.6 mph - N/A   Scattered Clouds
12:58 AM 70.9 °F 64.2 °F 79% 29.88 in 10.0 mi WSW 4.6 mph - 0.00 in   Scattered Clouds
1:52 AM 68.0 °F 64.4 °F 88% 29.91 in 10.0 mi NE 1.2 mph - N/A Rain Light Rain
1:58 AM 68.5 °F 64.2 °F 86% 29.88 in 10.0 mi East 3.5 mph - 0.00 in Rain Light Rain
2:07 AM 68.0 °F 64.4 °F 88% 29.91 in 10.0 mi ENE 2.3 mph - N/A   Scattered Clouds
2:58 AM 69.4 °F 63.0 °F 80% 29.88 in 10.0 mi Calm Calm - 0.00 in   Clear
3:58 AM 67.6 °F 63.5 °F 87% 29.88 in 10.0 mi WNW 2.3 mph - N/A   Clear
4:58 AM 68.7 °F 62.2 °F 80% 29.90 in 10.0 mi Variable 2.3 mph - N/A   Partly Cloudy
5:58 AM 65.1 °F 61.9 °F 89% 29.91 in 10.0 mi NE 3.5 mph - N/A   Clear
6:58 AM 64.2 °F 61.2 °F 90% 29.92 in 10.0 mi Calm Calm - N/A   Clear
7:58 AM 66.0 °F 63.1 °F 90% 29.94 in 10.0 mi NE 3.5 mph - N/A   Partly Cloudy
8:58 AM 71.8 °F 64.9 °F 79% 29.95 in 10.0 mi ESE 2.3 mph - N/A   Partly Cloudy
9:58 AM 74.5 °F 63.9 °F 69% 29.96 in 10.0 mi Variable 1.2 mph - N/A   Clear
10:58 AM 76.1 °F 64.9 °F 68% 29.95 in 10.0 mi West 10.4 mph - N/A   Partly Cloudy
11:58 AM 76.1 °F 62.4 °F 62% 29.93 in 10.0 mi West 10.4 mph - N/A   Partly Cloudy
12:58 PM 77.7 °F 60.3 °F 55% 29.91 in 10.0 mi SW 10.4 mph - N/A   Mostly Cloudy
1:58 PM 78.6 °F 60.6 °F 54% 29.88 in 10.0 mi SW 8.1 mph - N/A   Clear
2:58 PM 77.0 °F 58.3 °F 52% 29.88 in 10.0 mi WSW 10.4 mph - N/A   Overcast
3:58 PM 75.6 °F 59.9 °F 58% 29.89 in 10.0 mi WSW 9.2 mph - N/A   Overcast
4:58 PM 74.8 °F 60.8 °F 62% 29.90 in 10.0 mi Variable 2.3 mph - N/A   Overcast
5:58 PM 71.1 °F 66.7 °F 86% 29.94 in 10.0 mi NNW 8.1 mph - N/A   Mostly Cloudy
6:22 PM 69.8 °F 66.2 °F 88% 29.95 in 10.0 mi NNW 8.1 mph - N/A   Light Drizzle
6:27 PM 69.8 °F 68.0 °F 94% 29.96 in 10.0 mi NNW 9.2 mph - N/A Rain Light Rain
6:32 PM 69.8 °F 66.2 °F 88% 29.96 in 10.0 mi NNW 9.2 mph - N/A Rain Light Rain
6:42 PM 69.8 °F 66.2 °F 88% 29.97 in 10.0 mi NNW 8.1 mph - N/A Rain Rain
6:47 PM 69.8 °F 66.2 °F 88% 29.96 in 10.0 mi North 8.1 mph - N/A Rain Light Rain
6:57 PM 68.0 °F 66.2 °F 94% 29.96 in 10.0 mi NNW 11.5 mph - N/A Rain Light Rain
6:58 PM 68.9 °F 66.7 °F 93% 29.95 in 10.0 mi NNW 11.5 mph - 0.01 in Rain Light Rain
7:03 PM 68.0 °F 66.2 °F 94% 29.97 in 10.0 mi NNW 10.4 mph - N/A Rain Light Rain
7:05 PM 68.0 °F 66.2 °F 94% 29.97 in 10.0 mi North 12.7 mph - N/A   Scattered Clouds
7:09 PM 68.0 °F 66.2 °F 94% 29.97 in 10.0 mi North 10.4 mph - N/A Rain Light Rain
7:12 PM 68.0 °F 66.2 °F 94% 29.97 in 10.0 mi NNW 9.2 mph - N/A   Partly Cloudy
7:23 PM 68.0 °F 66.2 °F 94% 29.97 in 10.0 mi North 8.1 mph - N/A   Light Drizzle
7:45 PM 68.0 °F 66.2 °F 94% 29.98 in 10.0 mi NNW 6.9 mph - N/A   Partly Cloudy
7:58 PM 68.2 °F 66.2 °F 93% 29.96 in 10.0 mi NNW 4.6 mph - 0.00 in   Mostly Cloudy
8:23 PM 68.0 °F 66.2 °F 94% 29.99 in 10.0 mi NNW 6.9 mph - N/A   Mostly Cloudy
8:43 PM 68.0 °F 66.2 °F 94% 30.00 in 10.0 mi NNW 4.6 mph - N/A   Overcast
8:48 PM 68.0 °F 66.2 °F 94% 30.00 in 10.0 mi NW 4.6 mph - N/A   Overcast
8:58 PM 67.8 °F 65.7 °F 93% 29.98 in 10.0 mi WNW 4.6 mph - N/A   Overcast
9:00 PM 68.0 °F 66.2 °F 94% 30.00 in 10.0 mi WNW 4.6 mph - N/A   Light Drizzle
9:10 PM 68.0 °F 66.2 °F 94% 30.00 in 8.0 mi NW 4.6 mph - N/A Rain Light Rain
9:15 PM 68.0 °F 66.2 °F 94% 30.01 in 8.0 mi NNW 4.6 mph - N/A Rain Light Rain
9:20 PM 68.0 °F 66.2 °F 94% 30.01 in 9.0 mi NW 4.6 mph - N/A   Overcast
9:58 PM 68.0 °F 65.7 °F 92% 29.98 in 10.0 mi NW 4.6 mph - 0.01 in   Overcast
10:58 PM 67.6 °F 64.6 °F 90% 29.98 in 10.0 mi NW 4.6 mph - N/A   Mostly Cloudy
11:58 PM 66.2 °F 63.1 °F 90% 29.98 in 10.0 mi NW 4.6 mph - N/A   Clear